Regional Weather Roundup
Issued by NWS

Home | Current Version | Previous Version | Graphics & Text | Print | Product List | Glossary On
Versions: 1 2 3 4 5 6 7 8 9 10 11 12 13 14 15 16 17 18 19 20 21 22 23 24 25 26 27 28 29 30 31 32 33 34 35 36 37 38 39 40 41 42 43 44 45 46 47 48 49 50
000
ASUS43 KLMK 230702
RWRKY
KENTUCKY REGIONAL WEATHER ROUNDUP
NATIONAL WEATHER SERVICE LOUISVILLE KY
300 AM EDT WED APR 23 2014

NOTE "FAIR" INDICATES FEW OR NO CLOUDS BELOW 12,000 FEET
WITH NO SIGNIFICANT WEATHER AND/OR OBSTRUCTIONS TO VISIBILITY.

KYZ001>023-026-027-061>063-070>075-230800-
WESTERN AND SOUTH CENTRAL KENTUCKY

CITY           SKY/WX    TMP DP  RH WIND       PRES   REMARKS
PADUCAH        CLEAR     54  39  57 CALM      29.98S
HENDERSON      CLEAR     52  36  54 NE5       29.99S
OWENSBORO      CLEAR     53  37  54 NE6       29.99R
HOPKINSVILLE   CLEAR     49  40  71 N3        29.97S
BOWLING GREEN  CLEAR     49  38  65 CALM      29.97R
GLASGOW        NOT AVBL
$$

KYZ024-025-028>034-038-045-046-053-230800-
NORTH CENTRAL KENTUCKY

CITY           SKY/WX    TMP DP  RH WIND       PRES   REMARKS
LOUISVILLE/SDF CLEAR     49  32  52 N5        30.00S
LOUISVILLE/LOU CLEAR     50  32  50 N3        30.00S
FORT KNOX      CLEAR     47  31  53 N6        29.98S
$$

KYZ035>037-039>044-047>052-055>060-089>105-230800-
NORTHEAST KENTUCKY

CITY           SKY/WX    TMP DP  RH WIND       PRES   REMARKS
LEXINGTON      CLEAR     45  31  58 N3        29.98S
COVINGTON      CLEAR     42  32  67 NW6       29.99R
FRANKFORT      CLEAR     47  30  51 N5        29.98S
$$

KYZ054-064>069-076>088-106>120-230800-
SOUTHEAST KENTUCKY

CITY           SKY/WX    TMP DP  RH WIND       PRES   REMARKS
JACKSON        CLEAR     47  28  47 MISG      29.94S
LONDON         CLEAR     49  30  48 N5        29.95S
SOMERSET       NOT AVBL
MIDDLESBORO    NOT AVBL
MONTICELLO     SUNNY     51  30  44 N10       29.98S
$$




USA.gov is the U.S. government's official web portal to all federal, state and local government web resources and services.